Skip Page Navigation
NASA JPL Caltech
NASA Logo - Jet Propulsion Laboratory + View the NASA Portal
+ Center for Near-Earth Object Studies
JPL Home Earth Solar System Stars & Galaxies Technology
JPL Solar System Dynamics
BODIES ORBITS EPHEMERIDES TOOLS PHYSICAL DATA DISCOVERY FAQ SITE MAP
JPL Small-Body Database Browser
Search: [ help ]  
437064 (2012 UC47)
Classification: Main-belt Asteroid          SPK-ID: 2437064
Ephemeris | Orbit Diagram | Orbital Elements | Mission Design | Physical Parameters | Discovery Circumstances ]

[ show orbit diagram ]
Orbital Elements at Epoch 2459000.5 (2020-May-31.0) TDB
Reference: JPL 11 (heliocentric ecliptic J2000)
 Element Value Uncertainty (1-sigma)   Units 
e .05411449456771226 6.5042e-08  
a 2.662530263033833 4.3062e-08 au
q 2.518448783578519 1.8964e-07 au
i 7.061122748964233 8.489e-06 deg
node 61.06928490441834 5.2193e-05 deg
peri 275.5353350372958 9.3229e-05 deg
M 325.2987719073753 8.0116e-05 deg
tp 2459153.461664272768
(2020-Oct-30.96166427)
0.00035449 TDB
period 1586.866003451329
4.34
3.8498e-05
1.054e-07
d
yr
n .2268622550467548 5.5037e-09 deg/d
Q 2.806611742489147 4.5392e-08 au
  Orbit Determination Parameters
   # obs. used (total)      138  
   data-arc span      5723 days (15.67 yr)  
   first obs. used      2003-09-19  
   last obs. used      2019-05-21  
   planetary ephem.      DE431  
   SB-pert. ephem.      SB431-N16  
   condition code      0  
   norm. resid. RMS      .54947  
   source      ORB  
   producer      Otto Matic  
   solution date      2020-Feb-26 10:07:30  

Additional Information
 Earth MOID = 1.52132 au 
 Jupiter MOID = 2.38625 au 
 T_jup = 3.372 
[ show covariance matrix ]

Ephemeris | Orbit Diagram | Orbital Elements | Mission Design | Physical Parameters | Discovery Circumstances ]

Physical Parameter Table
Parameter Symbol Value Units Sigma Reference Notes
absolute magnitude H 16.8   n/a MPO434606  

437064 (2012 UC47)          Discovered 2008-Nov-19 by Mt. Lemmon Survey at Mount Lemmon
Reference: Last Updated: 2015-06-04

Alternate Designations
 2012 UC47 = 2008 YM42 
Ephemeris | Orbit Diagram | Orbital Elements | Mission Design | Physical Parameters | Discovery Circumstances ]
ABOUT SSD CREDITS/AWARDS PRIVACY/COPYRIGHT GLOSSARY LINKS
FirstGov 2020-Sep-25 04:04 UT
(server date/time)  
NASA Home Page
Site Manager:   Ryan S. Park
Webmaster  Alan B. Chamberlin